CAPE
nan nan nan nan nan nan nan nan 0 0 1 1 3 3 0 nan nan nan nan nan nan nan nan nan nan nan nan nan nan nan nan nan nan nan nan nan nan nan nan nan nan nan nan nan nan nan nan nan nan nan 0 1 1 1 2 4 4 7 10 11 11 13 14 15 15 18 18 20 22 22 21 18 16 16 16 17 20 20 23 24 24 27 27 33 33 42
nan nan nan nan nan nan nan nan 1 1 1 2 1 1 nan nan nan nan nan nan nan nan nan nan nan nan nan nan nan nan nan nan nan nan nan nan nan nan nan nan nan nan nan nan nan nan nan nan nan nan 0 1 1 1 2 4 4 6 8 9 9 10 12 13 13 15 17 17 16 16 13 10 10 10 11 14 16 16 18 20 20 24 26 32 32 42
nan nan nan nan nan nan nan nan nan nan 0 1 0 0 nan nan nan nan nan nan nan nan nan nan nan nan nan nan nan nan nan nan nan nan nan nan nan nan nan nan nan nan nan nan nan nan nan nan nan nan 0 1 1 1 2 3 3 5 6 6 6 6 7 8 8 9 11 10 8 8 6 6 7 7 9 12 14 14 16 19 19 23 28 34 34 44
nan nan nan nan nan nan nan nan nan nan nan nan nan nan nan nan nan nan nan nan nan nan nan nan nan nan nan nan nan nan nan nan nan nan nan nan nan nan nan nan nan nan nan nan nan nan nan nan nan 0 1 1 1 1 1 2 2 2 3 3 3 4 5 5 5 7 6 7 5 5 5 6 9 9 11 13 16 16 19 22 22 26 33 39 39 47
nan nan nan nan nan nan nan nan nan nan nan nan nan nan nan nan nan nan nan nan nan nan nan nan nan nan nan nan nan nan nan nan nan nan nan nan nan nan nan nan nan nan nan nan nan nan nan 0 0 1 1 1 1 1 1 1 1 2 2 3 3 3 5 5 5 6 6 5 5 5 6 8 10 10 14 17 21 21 24 27 27 30 36 44 44 50
nan nan nan nan nan nan nan nan nan nan nan nan nan nan nan nan nan nan nan nan nan nan nan nan nan nan nan nan nan nan nan nan nan nan nan nan nan nan nan nan nan nan nan nan nan nan 0 1 1 2 2 1 1 1 1 2 2 2 3 3 3 4 5 6 6 6 5 6 6 6 6 8 9 9 13 17 24 24 27 29 29 32 36 44 44 50
nan nan nan nan nan nan nan nan nan nan nan nan nan nan nan nan nan nan nan nan nan nan nan nan nan nan nan nan nan nan nan nan nan nan nan nan nan nan nan nan nan nan nan nan nan nan 0 1 1 1 2 2 2 2 2 2 2 3 3 3 3 4 5 5 5 5 5 5 6 6 6 7 9 9 10 15 21 21 28 31 31 31 33 39 39 48
nan nan nan nan nan nan nan nan nan nan nan nan nan nan nan nan nan nan nan nan nan nan nan nan nan nan nan nan nan nan nan nan nan nan nan nan nan nan nan nan nan nan nan nan nan 0 0 0 0 1 1 2 3 3 3 3 3 2 1 1 1 1 2 3 3 3 3 4 5 5 6 7 8 8 9 11 14 14 20 27 27 33 36 39 39 42
nan nan nan nan nan nan nan nan nan nan nan nan nan nan nan nan nan nan nan nan nan nan nan nan nan nan nan nan nan nan nan nan nan nan nan nan nan nan nan nan nan nan nan nan nan nan nan 0 0 0 1 2 2 2 3 1 1 1 0 0 0 0 1 2 2 3 4 5 5 5 6 7 8 8 10 12 15 15 18 24 24 32 37 41 41 44
nan nan nan nan nan nan nan nan nan nan nan nan nan nan nan nan nan nan nan nan nan nan nan nan nan nan nan nan nan nan nan nan nan nan nan nan nan nan nan nan nan nan nan nan nan nan nan nan nan 0 0 1 1 1 0 0 0 0 0 0 0 0 0 1 1 2 3 4 5 5 7 9 10 10 13 14 17 17 19 21 21 26 32 40 40 47
nan nan nan nan nan nan nan nan nan nan nan nan nan nan nan nan nan nan nan nan nan nan nan nan nan nan nan nan nan nan nan nan nan nan nan nan nan nan nan nan nan nan nan nan nan nan nan nan nan nan nan 0 0 0 nan nan nan nan nan nan nan nan 0 1 1 2 4 5 7 7 9 10 12 12 16 18 18 18 18 19 19 21 26 33 33 41
nan nan nan nan nan nan nan nan nan nan nan nan nan nan nan nan nan nan nan nan nan nan nan nan nan nan nan nan nan nan nan nan nan nan nan nan nan nan nan nan nan nan nan nan nan nan nan nan nan nan nan nan nan nan nan nan nan nan nan nan nan nan 0 1 1 3 5 6 9 9 10 13 15 15 17 18 18 18 17 18 18 19 22 28 28 36
nan nan nan nan nan nan nan nan nan nan nan nan nan nan nan nan nan nan nan nan nan nan nan nan nan nan nan nan nan nan nan nan nan nan nan nan nan nan nan nan nan nan nan nan nan nan nan nan nan nan nan nan nan nan nan nan nan nan nan nan nan nan 0 2 2 4 7 8 10 10 12 14 16 16 17 17 17 17 17 18 18 21 23 27 27 34
nan nan nan nan nan nan nan nan nan nan nan nan nan nan nan nan nan nan nan nan nan nan nan nan nan nan nan nan nan nan nan nan nan nan nan nan nan nan nan nan nan nan nan nan nan nan nan nan nan nan nan nan nan nan nan nan nan nan nan nan nan 0 1 3 3 5 7 9 10 10 12 14 16 16 16 16 16 16 17 19 19 21 23 26 26 31
nan nan nan nan nan nan nan nan nan nan nan nan nan nan nan nan nan nan nan nan nan nan nan nan nan nan nan nan nan nan nan nan nan nan nan nan nan nan nan nan nan nan nan nan nan nan nan nan nan nan nan nan nan nan nan nan nan nan nan nan nan 0 2 4 4 5 7 8 10 10 13 13 16 16 16 16 16 16 16 18 18 20 23 24 24 28
nan nan nan nan nan nan nan nan nan nan nan nan nan nan nan nan nan nan nan nan nan nan nan nan nan nan nan nan nan nan nan nan nan nan nan nan nan nan nan nan nan nan nan nan nan nan nan nan nan nan nan nan nan nan nan nan nan nan nan 0 0 1 3 4 4 5 7 9 11 11 12 15 16 16 15 14 15 15 16 17 17 18 20 22 22 23
nan nan nan nan nan nan nan nan nan nan nan nan nan nan nan nan nan nan nan nan nan nan nan nan nan nan nan nan nan nan nan nan nan nan nan nan nan nan nan nan nan nan nan nan nan nan nan nan nan nan nan nan nan nan nan nan nan nan nan 0 0 1 2 4 4 6 8 10 12 12 12 15 15 15 14 13 14 14 14 16 16 16 18 19 19 20
nan nan nan nan nan nan nan nan nan nan nan nan nan nan nan nan nan nan nan nan nan nan nan nan nan nan nan nan nan nan nan nan nan nan nan nan nan nan nan nan nan nan nan nan nan nan nan nan nan nan nan nan nan nan nan nan nan nan nan 0 0 2 3 5 5 7 9 10 10 10 10 12 13 13 13 13 13 13 14 16 16 16 17 17 17 18
nan nan nan nan nan nan nan nan nan nan nan nan nan nan nan nan nan nan nan nan nan nan nan nan nan nan nan nan nan nan nan nan nan nan nan nan nan nan nan nan nan nan nan nan nan nan nan nan nan nan nan nan nan nan nan nan nan nan nan 0 0 2 3 6 6 7 8 9 9 9 9 9 11 11 12 13 13 13 14 15 15 16 16 16 16 16
nan nan nan nan nan nan nan nan nan nan nan nan nan nan nan nan nan nan nan nan nan nan nan nan nan nan nan nan nan nan nan nan 0 0 0 nan nan nan nan nan nan nan nan nan nan nan nan nan nan nan nan nan nan nan nan nan nan nan nan 0 0 1 3 4 4 5 6 6 6 6 6 7 9 9 10 14 16 16 15 15 15 15 15 15 15 15
nan nan nan nan nan nan nan nan nan nan nan nan nan nan nan nan nan nan nan nan nan nan 0 nan nan nan nan nan nan nan nan nan 1 1 1 nan nan nan nan nan nan nan nan nan nan nan nan nan nan nan nan nan nan nan nan nan nan nan nan 0 0 1 2 3 3 3 4 4 4 4 6 7 9 9 12 14 15 15 16 16 16 14 14 14 14 15
nan nan nan nan nan nan nan nan nan nan 0 3 1 1 nan nan nan nan 0 0 0 0 1 0 0 nan nan nan nan nan 0 1 4 4 2 nan nan nan nan nan nan nan nan nan nan nan nan nan nan nan nan nan nan nan nan nan nan nan nan nan nan 0 0 1 1 1 1 3 4 4 7 9 10 10 12 13 14 14 16 16 16 14 13 14 14 15
nan nan nan nan nan nan nan 0 0 0 2 5 4 4 4 4 4 4 3 2 2 1 1 1 1 2 2 1 2 2 5 5 6 6 2 nan nan nan nan nan nan nan nan nan nan nan nan nan nan nan nan nan nan nan nan nan nan nan nan nan nan nan nan nan nan 0 1 3 6 6 8 10 12 12 13 14 14 14 14 15 15 14 13 14 14 15
0 0 0 0 0 2 1 0 0 0 1 3 6 6 12 5 5 5 9 7 7 8 9 6 6 5 5 6 6 6 5 5 4 4 0 nan nan nan nan nan nan nan nan nan nan nan nan nan nan nan nan nan nan nan nan nan nan nan nan nan nan nan nan nan nan 0 1 4 7 7 9 11 12 12 13 13 12 12 13 14 14 14 14 14 14 16
2 2 1 1 1 5 1 0 0 0 3 9 11 11 4 2 5 5 8 12 12 13 13 12 12 6 5 6 1 1 2 2 2 2 0 nan nan nan nan nan nan nan nan nan nan nan nan nan nan nan nan nan nan nan nan nan nan nan nan nan nan 0 0 0 0 1 2 4 7 7 9 9 11 11 11 11 12 12 14 15 15 14 15 15 15 16
2 3 3 3 3 4 4 6 8 8 16 30 15 15 7 13 17 17 13 13 13 13 13 8 8 5 2 1 0 0 0 2 1 1 0 nan nan nan nan nan nan nan nan nan nan nan nan nan nan nan nan nan nan nan nan nan nan nan nan nan nan nan 0 1 1 2 3 4 6 6 7 8 10 10 11 12 13 13 15 15 15 14 15 16 16 17
2 2 1 2 2 5 8 13 17 17 18 22 29 29 24 27 14 14 13 14 14 14 9 5 5 2 2 1 0 0 nan 0 0 0 0 nan nan nan nan nan nan nan nan nan nan nan nan nan nan nan nan nan nan nan nan nan nan nan nan nan nan 0 1 2 2 3 3 4 5 5 6 7 8 8 10 11 14 14 15 15 15 15 15 16 16 17
3 3 3 4 4 5 7 10 13 13 16 18 20 20 29 23 11 11 9 8 8 10 5 3 3 2 2 1 0 0 nan nan nan nan 0 nan nan nan nan nan nan nan nan nan nan nan nan nan nan nan nan nan nan nan nan nan nan nan nan 0 0 0 1 2 2 3 4 5 5 5 7 7 9 9 10 12 13 13 15 14 14 15 16 13 13 7
nan nan nan nan nan nan 0 4 8 8 9 12 16 16 18 13 11 11 9 7 7 4 4 5 5 3 2 1 0 0 nan nan nan nan 0 nan nan nan nan nan nan nan nan nan nan nan nan nan nan nan nan nan nan nan nan nan nan nan nan 0 0 0 1 1 1 2 3 4 5 5 6 8 9 9 11 12 13 13 15 15 15 16 14 9 9 5
1 nan nan nan nan nan nan 2 3 3 2 3 6 6 13 11 9 9 8 8 8 4 4 4 4 3 2 1 0 0 nan nan nan nan nan nan nan nan nan nan nan nan nan nan nan nan nan nan nan nan nan nan nan nan nan nan nan nan nan nan nan 0 0 1 1 2 3 3 5 5 6 8 9 9 11 12 13 13 16 16 16 14 9 5 5 4
5 7 6 4 4 3 2 3 0 0 0 1 3 3 5 7 7 7 7 6 6 4 3 2 2 2 2 1 0 0 nan nan nan nan nan nan nan nan nan nan nan 0 1 0 0 0 nan nan nan nan nan nan nan nan nan nan nan nan nan nan nan nan 0 0 0 1 3 4 5 5 6 8 9 9 10 11 13 13 13 16 16 13 6 5 5 4
5 4 3 2 2 2 0 nan nan nan nan nan nan nan nan 0 0 0 1 1 1 2 2 2 2 1 1 1 0 0 nan nan 0 0 1 0 1 1 1 1 1 1 1 3 3 2 0 0 0 nan nan nan nan nan nan nan nan nan nan nan nan nan nan 1 1 1 1 2 4 4 5 6 8 8 9 10 11 11 12 13 13 13 8 5 5 4
5 4 4 3 3 2 1 0 nan nan nan nan nan nan nan nan 0 0 1 2 2 2 2 2 2 1 1 1 1 1 0 nan 0 0 3 1 1 1 2 2 2 2 2 3 3 3 0 0 0 0 0 0 nan nan nan nan nan nan nan nan nan nan nan 0 0 nan 0 1 3 3 5 5 7 7 7 9 9 9 10 11 11 12 13 6 6 5
12 10 7 5 5 4 4 4 2 2 0 nan nan nan nan 1 2 2 4 4 4 4 3 1 1 1 1 1 0 0 0 nan 0 0 4 2 2 2 2 2 2 2 2 2 2 2 1 1 1 1 0 0 0 0 nan nan nan nan 0 nan nan nan nan nan nan nan nan 0 0 0 1 2 6 6 5 6 7 7 8 11 11 14 16 13 13 9
13 12 10 9 9 8 7 9 6 6 3 1 0 0 0 3 4 4 5 4 4 4 3 2 2 2 1 1 1 1 0 nan 1 1 5 4 4 4 3 2 2 2 3 2 2 2 2 1 1 2 1 0 nan nan nan nan nan 0 0 0 0 0 0 nan nan nan nan nan nan nan 0 0 1 1 2 5 7 7 10 13 13 16 18 20 20 16
14 15 14 9 9 7 2 5 8 8 5 2 1 1 2 3 4 4 3 2 2 2 3 4 4 4 3 1 1 1 0 nan 1 1 6 6 5 5 2 2 2 2 3 3 3 2 1 1 1 2 2 0 nan nan nan nan nan 0 0 0 0 0 0 0 0 0 nan nan nan nan 0 0 1 1 2 6 10 10 11 13 13 15 17 19 19 18
16 14 10 7 7 4 3 4 3 3 1 0 2 2 3 4 3 3 3 6 6 5 3 5 5 6 8 5 2 2 1 1 3 3 4 7 4 4 2 3 3 5 3 3 3 4 3 2 2 1 1 0 nan nan nan nan nan nan nan nan nan nan 0 1 1 2 2 1 1 1 1 1 2 2 3 8 8 8 10 12 12 12 14 15 15 18
9 7 7 4 4 1 1 4 1 1 0 1 3 3 2 2 5 5 4 6 6 9 6 5 5 5 9 8 7 7 5 5 5 5 6 6 4 4 4 2 2 4 5 4 4 4 2 1 1 0 0 nan 1 1 1 0 0 0 0 0 0 1 1 2 2 3 2 2 2 2 3 2 2 2 2 4 2 2 2 2 2 6 10 11 11 13
9 7 6 5 5 3 1 1 1 1 2 2 1 1 1 1 3 3 3 3 3 4 7 6 6 3 7 13 12 12 8 6 5 5 10 9 8 8 5 4 4 4 5 5 5 3 1 0 0 0 0 0 0 0 0 1 1 1 0 1 1 1 1 3 3 3 3 2 4 4 4 2 2 2 1 2 1 1 1 2 2 4 5 4 4 7
10 9 6 7 7 6 5 4 3 3 1 1 0 0 0 0 1 1 2 3 3 2 6 6 6 5 6 7 7 7 7 9 9 9 8 11 10 10 7 5 5 5 5 5 5 3 3 1 1 2 2 1 0 0 0 1 1 1 3 2 2 1 0 2 2 2 1 1 2 2 2 2 2 2 1 1 1 1 1 1 1 1 3 1 1 1
11 10 8 9 9 8 6 4 2 2 1 0 0 0 0 0 0 0 1 4 4 5 4 6 6 5 5 5 4 4 4 7 7 7 9 8 14 14 10 8 8 6 5 4 4 3 5 2 2 5 3 2 2 2 2 2 2 5 7 3 3 1 1 3 3 3 1 1 2 2 3 2 1 1 0 1 0 0 0 0 0 0 1 1 1 1
11 12 8 9 9 5 3 2 1 1 0 0 1 1 1 1 1 1 2 3 3 5 5 7 7 7 5 3 3 3 4 5 8 8 9 7 13 13 12 8 8 6 5 4 4 3 4 5 5 4 2 2 2 2 1 2 2 4 5 3 3 2 3 2 2 2 2 1 1 1 3 1 0 0 0 0 0 0 2 2 2 4 3 1 1 1
11 8 9 8 8 4 2 1 0 0 1 1 1 1 1 2 2 2 3 4 4 5 5 6 6 6 4 2 1 1 4 6 8 8 10 9 8 8 12 8 8 7 6 5 5 4 6 7 7 4 4 3 4 4 2 3 3 3 3 4 4 3 1 1 1 1 1 2 1 1 1 1 1 1 1 1 1 1 2 5 5 9 6 1 1 1
10 10 9 6 6 2 0 0 0 0 2 2 2 2 2 4 5 5 5 4 4 6 5 5 5 6 3 2 2 2 2 5 11 11 12 11 10 10 9 9 9 7 8 7 7 5 5 6 6 4 4 6 6 6 2 2 2 2 2 3 3 3 1 1 1 1 2 2 2 2 2 1 1 1 1 1 1 1 1 2 2 1 2 1 1 0
8 7 7 5 5 3 1 3 3 3 4 3 2 2 3 6 7 7 5 4 4 5 6 5 5 4 2 2 2 2 3 2 7 7 8 9 11 11 9 9 9 8 8 9 9 7 6 6 6 5 4 6 5 5 4 3 3 1 3 4 4 4 2 3 3 3 2 1 2 2 2 4 3 3 2 2 1 1 1 0 0 0 0 0 0 0
5 5 6 5 5 4 3 6 6 6 6 4 4 4 4 8 8 8 6 5 5 5 5 5 5 2 2 2 2 2 3 2 1 1 2 4 6 6 6 8 8 8 8 9 9 10 11 6 6 5 4 4 3 3 2 4 4 2 3 4 4 4 4 3 3 2 2 1 1 1 1 5 3 3 3 3 1 1 1 1 1 0 0 0 0 nan
5 6 5 5 5 5 5 7 6 6 4 4 4 4 4 7 9 9 6 6 6 6 5 5 5 4 3 3 2 2 2 2 2 2 1 2 3 3 4 6 6 8 8 7 7 8 7 8 8 7 5 4 2 2 1 2 2 3 4 4 4 3 2 1 1 1 2 2 1 1 2 6 4 4 3 2 1 1 1 1 1 1 1 0 0 0
6 6 6 6 6 7 7 5 5 5 4 3 3 3 4 5 6 6 5 6 6 5 6 5 5 5 3 2 2 2 3 2 2 2 2 2 4 4 4 3 3 5 5 6 6 7 5 7 7 8 8 4 1 1 2 3 3 4 4 4 4 2 2 1 1 1 2 3 4 4 8 5 3 3 2 1 1 1 1 1 1 1 1 0 0 0
7 7 8 10 10 10 9 4 3 3 5 4 3 3 3 8 11 11 6 5 5 5 5 5 5 3 3 2 3 3 3 3 2 2 2 3 4 4 5 3 3 2 3 5 5 5 6 8 8 9 9 7 3 3 3 3 3 3 3 3 3 2 1 0 0 0 1 2 1 1 3 4 1 1 0 nan nan nan 0 0 0 0 0 0 0 nan
7 8 8 10 10 13 7 3 1 1 4 5 3 3 4 6 8 8 6 4 4 4 5 5 5 3 3 2 2 2 3 4 3 3 3 3 4 4 4 3 3 2 3 4 4 3 3 7 7 8 12 8 5 5 4 3 3 3 3 3 3 1 1 0 0 0 0 1 2 2 9 5 5 5 3 1 0 0 0 0 0 0 0 0 0 0
7 6 5 5 5 5 3 1 2 2 3 4 4 4 4 5 7 7 6 5 5 5 6 6 6 4 3 3 2 2 3 3 3 3 3 4 3 3 3 3 3 3 3 3 3 2 2 2 2 1 4 10 7 7 1 1 1 1 0 0 0 0 0 nan nan 0 1 1 1 1 1 1 2 2 2 0 0 0 2 0 0 0 nan nan nan 0
CIN
nan nan nan nan nan nan nan nan -0 -0 -0 -0 -0 -0 -0 nan nan nan nan nan nan nan nan nan nan nan nan nan nan nan nan nan nan nan nan nan nan nan nan nan nan nan nan nan nan nan nan nan nan nan -0 -0 -0 -0 -0 -0 -0 -0 -0 -0 -0 -0 -0 -0 -0 -0 -0 -0 -0 -0 -0 -0 -0 -0 -0 -0 -0 -0 -0 -0 -0 -0 -0 -0 -0 -0
nan nan nan nan nan nan nan nan -0 -0 -0 -0 -0 -0 nan nan nan nan nan nan nan nan nan nan nan nan nan nan nan nan nan nan nan nan nan nan nan nan nan nan nan nan nan nan nan nan nan nan nan nan -0 -0 -0 -0 -0 -0 -0 -0 -0 -0 -0 -0 -0 -0 -0 -0 -0 -0 -0 -0 -0 -0 -0 -0 -0 -0 -0 -0 -0 -0 -0 -0 -0 -0 -0 -0
nan nan nan nan nan nan nan nan nan nan -0 -0 -0 -0 nan nan nan nan nan nan nan nan nan nan nan nan nan nan nan nan nan nan nan nan nan nan nan nan nan nan nan nan nan nan nan nan nan nan nan nan -0 -0 -0 -0 -0 -0 -0 -0 -0 -0 -0 -0 -0 -0 -0 -0 -0 -0 -0 -0 -0 -0 -0 -0 -0 -0 -0 -0 -0 -0 -0 -0 -0 -0 -0 -0
nan nan nan nan nan nan nan nan nan nan nan nan nan nan nan nan nan nan nan nan nan nan nan nan nan nan nan nan nan nan nan nan nan nan nan nan nan nan nan nan nan nan nan nan nan nan nan nan nan -0 -0 -0 -0 -0 -0 -0 -0 -0 -0 -0 -0 -0 -0 -0 -0 -0 -0 -0 -0 -0 -0 -0 -0 -0 -0 -0 -0 -0 -0 -0 -0 -0 -0 -0 -0 -0
nan nan nan nan nan nan nan nan nan nan nan nan nan nan nan nan nan nan nan nan nan nan nan nan nan nan nan nan nan nan nan nan nan nan nan nan nan nan nan nan nan nan nan nan nan nan nan -0 -0 -0 -0 -0 -0 -0 -0 -0 -0 -0 -0 -0 -0 -0 -0 -0 -0 -0 -0 -0 -0 -0 -0 -0 -0 -0 -0 -0 -0 -0 -0 -0 -0 -0 -0 -0 -0 -0
nan nan nan nan nan nan nan nan nan nan nan nan nan nan nan nan nan nan nan nan nan nan nan nan nan nan nan nan nan nan nan nan nan nan nan nan nan nan nan nan nan nan nan nan nan nan -0 -0 -0 -0 -0 -0 -0 -0 -0 -0 -0 -0 -0 -0 -0 -0 -0 -0 -0 -0 -0 -0 -0 -0 -0 -0 -0 -0 -0 -0 -0 -0 -0 -0 -0 -0 -0 -0 -0 -0
nan nan nan nan nan nan nan nan nan nan nan nan nan nan nan nan nan nan nan nan nan nan nan nan nan nan nan nan nan nan nan nan nan nan nan nan nan nan nan nan nan nan nan nan nan nan -0 -0 -0 -0 -0 -0 -0 -0 -0 -0 -0 -0 -0 -0 -0 -0 -0 -0 -0 -0 -0 -0 -0 -0 -0 -0 -0 -0 -0 -0 -0 -0 -0 -0 -0 -0 -0 -0 -0 -0
nan nan nan nan nan nan nan nan nan nan nan nan nan nan nan nan nan nan nan nan nan nan nan nan nan nan nan nan nan nan nan nan nan nan nan nan nan nan nan nan nan nan nan nan nan -0 -0 -0 -0 -0 -0 -0 -0 -0 -0 -0 -0 -0 -0 -0 -0 -0 -0 -0 -0 -0 -0 -0 -0 -0 -0 -0 -0 -0 -0 -0 -0 -0 -0 -0 -0 -0 -0 -0 -0 -0
nan nan nan nan nan nan nan nan nan nan nan nan nan nan nan nan nan nan nan nan nan nan nan nan nan nan nan nan nan nan nan nan nan nan nan nan nan nan nan nan nan nan nan nan nan nan nan -0 -0 -0 -0 -0 -0 -0 -0 -0 -0 -0 -0 -0 -0 -0 -0 -0 -0 -0 -0 -0 -0 -0 -0 -0 -0 -0 -0 -0 -0 -0 -0 -0 -0 -0 -0 -0 -0 -0
nan nan nan nan nan nan nan nan nan nan nan nan nan nan nan nan nan nan nan nan nan nan nan nan nan nan nan nan nan nan nan nan nan nan nan nan nan nan nan nan nan nan nan nan nan nan nan nan nan -0 -0 -0 -0 -0 -0 -0 -0 -0 -0 -0 -0 -0 -0 -0 -0 -0 -0 -0 -0 -0 -0 -0 -0 -0 -0 -0 -0 -0 -0 -0 -0 -0 -0 -0 -0 -0
nan nan nan nan nan nan nan nan nan nan nan nan nan nan nan nan nan nan nan nan nan nan nan nan nan nan nan nan nan nan nan nan nan nan nan nan nan nan nan nan nan nan nan nan nan nan nan nan nan nan nan -0 -0 -0 nan nan nan nan nan nan nan nan -0 -0 -0 -0 -0 -0 -0 -0 -0 -0 -0 -0 -0 -0 -0 -0 -0 -0 -0 -0 -0 -0 -0 -0
nan nan nan nan nan nan nan nan nan nan nan nan nan nan nan nan nan nan nan nan nan nan nan nan nan nan nan nan nan nan nan nan nan nan nan nan nan nan nan nan nan nan nan nan nan nan nan nan nan nan nan nan nan nan nan nan nan nan nan nan nan nan -0 -0 -0 -0 -0 -0 -0 -0 -0 -0 -0 -0 -0 -0 -0 -0 -0 -0 -0 -0 -0 -0 -0 -0
nan nan nan nan nan nan nan nan nan nan nan nan nan nan nan nan nan nan nan nan nan nan nan nan nan nan nan nan nan nan nan nan nan nan nan nan nan nan nan nan nan nan nan nan nan nan nan nan nan nan nan nan nan nan nan nan nan nan nan nan nan nan -0 -0 -0 -0 -0 -0 -0 -0 -0 -0 -0 -0 -0 -0 -0 -0 -0 -0 -0 -0 -0 -0 -0 -0
nan nan nan nan nan nan nan nan nan nan nan nan nan nan nan nan nan nan nan nan nan nan nan nan nan nan nan nan nan nan nan nan nan nan nan nan nan nan nan nan nan nan nan nan nan nan nan nan nan nan nan nan nan nan nan nan nan nan nan nan nan -0 -0 -0 -0 -0 -0 -0 -0 -0 -0 -0 -0 -0 -0 -0 -0 -0 -0 -0 -0 -0 -0 -0 -0 -0
nan nan nan nan nan nan nan nan nan nan nan nan nan nan nan nan nan nan nan nan nan nan nan nan nan nan nan nan nan nan nan nan nan nan nan nan nan nan nan nan nan nan nan nan nan nan nan nan nan nan nan nan nan nan nan nan nan nan nan nan nan -0 -0 -0 -0 -0 -0 -0 -0 -0 -0 -0 -0 -0 -0 -0 -0 -0 -0 -0 -0 -0 -0 -0 -0 -0
nan nan nan nan nan nan nan nan nan nan nan nan nan nan nan nan nan nan nan nan nan nan nan nan nan nan nan nan nan nan nan nan nan nan nan nan nan nan nan nan nan nan nan nan nan nan nan nan nan nan nan nan nan nan nan nan nan nan nan -0 -0 -0 -0 -0 -0 -0 -0 -0 -0 -0 -0 -0 -0 -0 -0 -0 -0 -0 -0 -0 -0 -0 -0 -0 -0 -0
nan nan nan nan nan nan nan nan nan nan nan nan nan nan nan nan nan nan nan nan nan nan nan nan nan nan nan nan nan nan nan nan nan nan nan nan nan nan nan nan nan nan nan nan nan nan nan nan nan nan nan nan nan nan nan nan nan nan nan -0 -0 -0 -0 -0 -0 -0 -0 -0 -0 -0 -0 -0 -0 -0 -0 -0 -0 -0 -0 -0 -0 -0 -0 -0 -0 -0
nan nan nan nan nan nan nan nan nan nan nan nan nan nan nan nan nan nan nan nan nan nan nan nan nan nan nan nan nan nan nan nan nan nan nan nan nan nan nan nan nan nan nan nan nan nan nan nan nan nan nan nan nan nan nan nan nan nan nan -0 -0 -0 -0 -0 -0 -0 -0 -0 -0 -0 -0 -0 -0 -0 -0 -0 -0 -0 -0 -0 -0 -0 -0 -0 -0 -0
nan nan nan nan nan nan nan nan nan nan nan nan nan nan nan nan nan nan nan nan nan nan nan nan nan nan nan nan nan nan nan nan nan nan nan nan nan nan nan nan nan nan nan nan nan nan nan nan nan nan nan nan nan nan nan nan nan nan nan -0 -0 -0 -0 -0 -0 -0 -0 -0 -0 -0 -0 -0 -0 -0 -0 -0 -0 -0 -0 -0 -0 -0 -0 -0 -0 -0
nan nan nan nan nan nan nan nan nan nan nan nan nan nan nan nan nan nan nan nan nan nan nan nan nan nan nan nan nan nan nan nan -0 -0 -0 nan nan nan nan nan nan nan nan nan nan nan nan nan nan nan nan nan nan nan nan nan nan nan nan -0 -0 -0 -0 -0 -0 -0 -0 -0 -0 -0 -0 -0 -0 -0 -0 -0 -0 -0 -0 -0 -0 -0 -0 -0 -0 -0
nan nan nan nan nan nan nan nan nan nan nan nan nan nan nan nan nan nan nan nan nan nan -0 nan nan nan nan nan nan nan nan nan -0 -0 -0 nan nan nan nan nan nan nan nan nan nan nan nan nan nan nan nan nan nan nan nan nan nan nan nan -0 -0 -0 -0 -0 -0 -0 -0 -0 -0 -0 -0 -0 -0 -0 -0 -0 -0 -0 -0 -0 -0 -0 -0 -0 -0 -0
nan nan nan nan nan nan nan nan nan nan -0 -0 -0 -0 nan nan nan nan -0 -0 -0 -0 -0 -0 -0 nan nan nan nan nan -0 -0 -0 -0 -0 nan nan nan nan nan nan nan nan nan nan nan nan nan nan nan nan nan nan nan nan nan nan nan nan nan nan -0 -0 -0 -0 -0 -0 -0 -0 -0 -0 -0 -0 -0 -0 -0 -0 -0 -0 -0 -0 -0 -0 -0 -0 -0
nan nan nan nan nan nan nan -0 -0 -0 -0 -0 -0 -0 -0 -0 -0 -0 -0 -0 -0 -0 -0 -0 -0 -0 -0 -0 -0 -0 -0 -0 -0 -0 -0 nan nan nan nan nan nan nan nan nan nan nan nan nan nan nan nan nan nan nan nan nan nan nan nan nan nan nan nan nan nan -0 -0 -0 -0 -0 -0 -0 -0 -0 -0 -0 -0 -0 -0 -0 -0 -0 -0 -0 -0 -0
-0 -0 -0 -0 -0 -0 -0 -0 -0 -0 -0 -0 -0 -0 -0 -0 -0 -0 -0 -0 -0 -0 -0 -0 -0 -0 -0 -0 -0 -0 -0 -0 -0 -0 -0 nan nan nan nan nan nan nan nan nan nan nan nan nan nan nan nan nan nan nan nan nan nan nan nan nan nan nan nan nan nan -0 -0 -0 -0 -0 -0 -0 -0 -0 -0 -0 -0 -0 -0 -0 -0 -0 -0 -0 -0 -0
-0 -0 -0 -0 -0 -0 -0 -0 -0 -0 -0 -0 -0 -0 -4 -0 -0 -0 -0 -0 -0 -0 -0 -0 -0 -0 -0 -0 -0 -0 -0 -0 -0 -0 -0 nan nan nan nan nan nan nan nan nan nan nan nan nan nan nan nan nan nan nan nan nan nan nan nan nan nan -0 -0 -0 -0 -0 -0 -0 -0 -0 -0 -0 -0 -0 -0 -0 -0 -0 -0 -0 -0 -0 -0 -0 -0 -0
-0 -0 -0 -0 -0 -0 -0 -0 -0 -0 -0 -0 -0 -0 -0 -0 -0 -0 -0 -0 -0 -0 -0 -0 -0 -0 -0 -0 -0 -0 -0 -0 -0 -0 -0 nan nan nan nan nan nan nan nan nan nan nan nan nan nan nan nan nan nan nan nan nan nan nan nan nan nan nan -0 -0 -0 -0 -0 -0 -0 -0 -0 -0 -0 -0 -0 -0 -0 -0 -0 -0 -0 -0 -0 -0 -0 -0
-0 -0 -0 -0 -0 -0 -0 -0 -0 -0 -0 -0 -0 -0 -0 -0 -0 -0 -0 -0 -0 -0 -0 -0 -0 -0 -0 -0 -0 -0 nan -0 -0 -0 -0 nan nan nan nan nan nan nan nan nan nan nan nan nan nan nan nan nan nan nan nan nan nan nan nan nan nan -0 -0 -0 -0 -0 -0 -0 -0 -0 -0 -0 -0 -0 -0 -0 -0 -0 -0 -0 -0 -0 -0 -0 -0 -0
-0 -0 -0 -0 -0 -0 -0 -0 -0 -0 -0 -0 -0 -0 -0 -0 -0 -0 -0 -0 -0 -0 -0 -0 -0 -0 -0 -0 -0 -0 nan nan nan nan -0 nan nan nan nan nan nan nan nan nan nan nan nan nan nan nan nan nan nan nan nan nan nan nan nan -0 -0 -0 -0 -0 -0 -0 -0 -0 -0 -0 -0 -0 -0 -0 -0 -0 -0 -0 -0 -0 -0 -0 -0 -0 -0 -0
nan nan nan nan nan nan -0 -0 -0 -0 -0 -0 -0 -0 -0 -0 -0 -0 -0 -0 -0 -0 -0 -0 -0 -0 -0 -0 -0 -0 nan nan nan nan -0 nan nan nan nan nan nan nan nan nan nan nan nan nan nan nan nan nan nan nan nan nan nan nan nan -0 -0 -0 -0 -0 -0 -0 -0 -0 -0 -0 -0 -0 -0 -0 -0 -0 -0 -0 -0 -0 -0 -0 -0 -0 -0 -0
-0 nan nan nan nan nan nan -0 -0 -0 -0 -0 -0 -0 -0 -0 -0 -0 -0 -0 -0 -0 -0 -0 -0 -0 -0 -0 -0 -0 nan nan nan nan nan nan nan nan nan nan nan nan nan nan nan nan nan nan nan nan nan nan nan nan nan nan nan nan nan nan nan -0 -0 -0 -0 -0 -0 -0 -0 -0 -0 -0 -0 -0 -0 -0 -0 -0 -0 -0 -0 -0 -0 -0 -0 -0
-0 -0 -0 -0 -0 -0 -0 -0 -0 -0 -0 -0 -0 -0 -0 -0 -0 -0 -0 -0 -0 -0 -0 -0 -0 -0 -0 -0 -0 -0 nan nan nan nan nan nan nan nan nan nan nan -0 -0 -0 -0 -0 nan nan nan nan nan nan nan nan nan nan nan nan nan nan nan nan -0 -0 -0 -0 -0 -0 -0 -0 -0 -0 -0 -0 -0 -0 -0 -0 -0 -0 -0 -0 -0 -0 -0 -0
-0 -0 -0 -0 -0 -0 -0 nan nan nan nan nan nan nan nan -0 -0 -0 -0 -0 -0 -0 -0 -0 -0 -0 -0 -0 -0 -0 nan nan -0 -0 -0 -0 -0 -0 -0 -0 -0 -0 -0 -0 -0 -0 -0 -0 -0 nan nan nan nan nan nan nan nan nan nan nan nan nan nan -0 -0 -0 -0 -0 -0 -0 -0 -0 -0 -0 -0 -0 -0 -0 -0 -0 -0 -0 -0 -0 -0 -0
-0 -0 -0 -0 -0 -0 -0 -0 nan nan nan nan nan nan nan nan -0 -0 -0 -0 -0 -0 -0 -0 -0 -0 -0 -0 -0 -0 -0 nan -0 -0 -0 -0 -0 -0 -0 -0 -0 -0 -0 -0 -0 -0 -0 -0 -0 -0 -0 -0 nan nan nan nan nan nan nan nan nan nan nan -0 -0 nan -0 -0 -0 -0 -0 -0 -0 -0 -0 -0 -0 -0 -0 -0 -0 -0 -0 -0 -0 -0
-0 -0 -0 -0 -0 -0 -0 -0 -0 -0 -0 nan nan nan nan -0 -0 -0 -0 -0 -0 -0 -0 -0 -0 -0 -0 -0 -0 -0 -0 nan -0 -0 -0 -0 -0 -0 -0 -0 -0 -0 -0 -0 -0 -0 -0 -0 -0 -0 -0 -0 -0 -0 nan nan nan nan -0 nan nan nan nan nan nan nan nan -0 -0 -0 -0 -0 -0 -0 -0 -0 -0 -0 -0 -0 -0 -0 -0 -0 -0 -0
-0 -0 -0 -0 -0 -0 -0 -0 -0 -0 -0 -0 -0 -0 -0 -0 -0 -0 -0 -0 -0 -0 -0 -0 -0 -0 -0 -0 -0 -0 -0 nan -0 -0 -0 -0 -0 -0 -0 -0 -0 -0 -0 -0 -0 -0 -0 -0 -0 -0 -0 -0 nan nan nan nan nan -0 -0 -0 -0 -0 -0 nan nan nan nan nan nan nan -0 -0 -0 -0 -0 -0 -0 -0 -0 -0 -0 -0 -0 -0 -0 -0
-0 -0 -0 -0 -0 -0 -0 -0 -0 -0 -0 -0 -0 -0 -0 -0 -0 -0 -0 -0 -0 -0 -0 -0 -0 -0 -0 -0 -0 -0 -0 nan -0 -0 -0 -0 -0 -0 -0 -0 -0 -0 -0 -0 -0 -0 -0 -0 -0 -0 -0 -0 nan nan nan nan nan -0 -0 -0 -0 -0 -0 -0 -0 -0 nan nan nan nan -0 -0 -0 -0 -0 -0 -0 -0 -0 -0 -0 -0 -0 -0 -0 -0
-0 -0 -0 -0 -0 -0 -0 -0 -0 -0 -0 -0 -0 -0 -0 -0 -0 -0 -0 -0 -0 -0 -0 -0 -0 -0 -0 -0 -0 -0 -0 -0 -0 -0 -0 -0 -0 -0 -0 -0 -0 -0 -0 -0 -0 -0 -0 -0 -0 -0 -0 -0 nan nan nan nan nan nan nan nan nan nan -0 -0 -0 -0 -0 -0 -0 -0 -0 -0 -0 -0 -0 -0 -0 -0 -0 -0 -0 -0 -0 -0 -0 -0
-0 -0 -0 -0 -0 -0 -0 -0 -0 -0 -0 -0 -0 -0 -0 -0 -0 -0 -0 -0 -0 -0 -0 -0 -0 -0 -0 -0 -0 -0 -0 -0 -0 -0 -0 -0 -0 -0 -0 -0 -0 -0 -0 -0 -0 -0 -0 -0 -0 -0 -0 nan -0 -0 -0 -0 -0 -0 -0 -0 -0 -0 -0 -0 -0 -0 -0 -0 -0 -0 -0 -0 -0 -0 -0 -0 -0 -0 -0 -0 -0 -0 -0 -0 -0 -0
-0 -0 -0 -0 -0 -0 -0 -0 -0 -0 -0 -0 -0 -0 -0 -0 -0 -0 -0 -0 -0 -0 -0 -0 -0 -0 -0 -0 -0 -0 -0 -1 -6 -6 -0 -0 -0 -0 -0 -0 -0 -0 -0 -0 -0 -0 -0 -0 -0 -0 -0 -0 -0 -0 -0 -0 -0 -0 -0 -0 -0 -0 -0 -0 -0 -0 -0 -0 -0 -0 -0 -0 -0 -0 -0 -0 -0 -0 -0 -0 -0 -0 -0 -0 -0 -0
-0 -0 -0 -0 -0 -0 -0 -0 -0 -0 -0 -0 -0 -0 -0 -0 -0 -0 -0 -0 -0 -0 -0 -0 -0 -0 -0 -0 -0 -0 -0 -2 -0 -0 -2 -2 -0 -0 -0 -0 -0 -0 -0 -0 -0 -0 -0 -0 -0 -0 -0 -0 -0 -0 -0 -0 -0 -0 -0 -0 -0 -0 -0 -0 -0 -0 -0 -0 -0 -0 -0 -0 -0 -0 -0 -0 -0 -0 -0 -0 -0 -0 -0 -0 -0 -0
-0 -0 -0 -0 -0 -0 -0 -0 -0 -0 -0 -0 -0 -0 -0 -0 -0 -0 -0 -0 -0 -0 -0 -0 -0 -0 -0 -0 -0 -0 -0 -0 -0 -0 -1 -2 -0 -0 -0 -0 -0 -0 -0 -0 -0 -0 -0 -0 -0 -0 -0 -0 -0 -0 -0 -0 -0 -0 -0 -0 -0 -0 -0 -0 -0 -0 -0 -0 -0 -0 -0 -0 -0 -0 -0 -0 -0 -0 -0 -0 -0 -0 -0 -0 -0 -0
-0 -0 -0 -0 -0 -0 -0 -0 -0 -0 -0 -0 -0 -0 -0 -0 -0 -0 -0 -0 -0 -0 -0 -0 -0 -0 -0 -0 -0 -0 -0 -0 -0 -0 -2 -2 -0 -0 -0 -0 -0 -0 -0 -0 -0 -0 -0 -0 -0 -0 -0 -0 -0 -0 -0 -0 -0 -0 -0 -0 -0 -0 -0 -0 -0 -0 -0 -0 -0 -0 -0 -0 -0 -0 -0 -0 -0 -0 -0 -0 -0 -0 -0 -0 -0 -0
-0 -0 -0 -0 -0 -0 -0 -0 -0 -0 -0 -0 -0 -0 -0 -0 -0 -0 -0 -0 -0 -0 -0 -0 -0 -0 -0 -0 -0 -0 -0 -0 -0 -0 -0 -1 -0 -0 -0 -0 -0 -0 -0 -0 -0 -0 -0 -0 -0 -0 -0 -0 -0 -0 -0 -0 -0 -0 -0 -0 -0 -0 -0 -0 -0 -0 -0 -0 -0 -0 -0 -0 -0 -0 -0 -0 -0 -0 -0 -0 -0 -0 -0 -0 -0 -0
-0 -0 -0 -0 -0 -0 -0 -0 -0 -0 -0 -0 -0 -0 -0 -0 -0 -0 -0 -0 -0 -0 -0 -0 -0 -0 -0 -0 -0 -0 -0 -0 -0 -0 -0 -0 -0 -0 -0 -0 -0 -0 -0 -0 -0 -0 -0 -0 -0 -0 -0 -0 -0 -0 -0 -0 -0 -0 -0 -0 -0 -0 -0 -0 -0 -0 -0 -0 -0 -0 -0 -0 -0 -0 -0 -0 -0 -0 -0 -0 -0 -0 -0 -0 -0 -0
-0 -0 -0 -0 -0 -0 -0 -0 -0 -0 -0 -0 -0 -0 -0 -0 -0 -0 -0 -0 -0 -0 -0 -0 -0 -0 -0 -0 -0 -0 -0 -0 -0 -0 -0 -0 -0 -0 -0 -0 -0 -0 -0 -0 -0 -0 -0 -0 -0 -0 -0 -0 -0 -0 -0 -0 -0 -0 -0 -0 -0 -0 -0 -0 -0 -0 -0 -0 -0 -0 -0 -0 -0 -0 -0 -0 -0 -0 -0 -0 -0 -0 -0 -0 -0 -0
-0 -0 -0 -0 -0 -0 -0 -0 -0 -0 -0 -0 -0 -0 -0 -0 -0 -0 -0 -0 -0 -0 -0 -0 -0 -0 -0 -0 -0 -0 -0 -0 -0 -0 -0 -0 -0 -0 -0 -0 -0 -0 -0 -0 -0 -0 -0 -0 -0 -0 -0 -0 -0 -0 -0 -0 -0 -0 -0 -0 -0 -0 -0 -0 -0 -0 -0 -0 -0 -0 -0 -0 -0 -0 -0 -0 -0 -0 -0 -0 -0 -0 -0 -0 -0 nan
-0 -0 -0 -0 -0 -0 -0 -0 -0 -0 -0 -0 -0 -0 -0 -0 -0 -0 -0 -0 -0 -0 -0 -0 -0 -0 -0 -0 -0 -0 -0 -0 -0 -0 -0 -0 -0 -0 -0 -0 -0 -0 -0 -0 -0 -0 -0 -0 -0 -0 -0 -0 -0 -0 -0 -0 -0 -0 -0 -0 -0 -0 -0 -0 -0 -0 -0 -0 -0 -0 -1 -6 -0 -0 -0 -0 -0 -0 -0 -0 -0 -0 -0 -0 -0 -0
-0 -0 -0 -0 -0 -0 -0 -0 -0 -0 -0 -0 -0 -0 -0 -0 -0 -0 -0 -0 -0 -0 -0 -0 -0 -0 -0 -0 -0 -0 -0 -0 -0 -0 -0 -0 -0 -0 -0 -0 -0 -0 -0 -0 -0 -0 -0 -2 -2 -3 -0 -0 -0 -0 -0 -0 -0 -0 -0 -0 -0 -0 -0 -0 -0 -0 -0 -0 -12 -12 -7 -3 -0 -0 -0 -0 -0 -0 -0 -0 -0 -0 -0 -0 -0 -0
-0 -0 -0 -0 -0 -0 -0 -0 -0 -0 -0 -0 -0 -0 -0 -0 -0 -0 -0 -0 -0 -0 -0 -0 -0 -0 -0 -0 -0 -0 -0 -0 -0 -0 -0 -0 -0 -0 -0 -0 -0 -0 -0 -0 -0 -0 -0 -3 -3 -0 -0 -0 -0 -0 -0 -0 -0 -0 -0 -0 -0 -0 -0 -0 -0 -0 -0 -5 -29 -29 -18 -0 -0 -0 -2 nan nan nan -0 -0 -0 -0 -0 -0 -0 nan
-0 -0 -0 -0 -0 -0 -0 -0 -0 -0 -0 -0 -0 -0 -0 -0 -0 -0 -0 -0 -0 -0 -0 -0 -0 -0 -0 -0 -0 -0 -0 -0 -0 -0 -0 -0 -0 -0 -0 -0 -0 -0 -0 -0 -0 -0 -0 -2 -2 -0 -0 -0 -0 -0 -0 -0 -0 -0 -0 -0 -0 -0 -0 -0 -0 -0 -0 -0 -22 -22 -8 -0 -0 -0 -0 -0 -0 -0 -0 -0 -0 -0 -0 -0 -0 -0
-0 -0 -0 -0 -0 -0 -0 -0 -0 -0 -0 -0 -0 -0 -0 -0 -0 -0 -0 -0 -0 -0 -0 -0 -0 -0 -0 -0 -0 -0 -0 -0 -0 -0 -0 -0 -0 -0 -0 -0 -0 -0 -0 -0 -0 -0 -0 -0 -0 -0 -0 -0 -0 -0 -0 -0 -0 -0 -0 -0 -0 -0 -0 nan nan -0 -0 -0 -8 -8 -17 -11 -0 -0 -0 -1 -0 -0 -0 -0 -0 -0 nan nan nan -0
Wind_Speed
1 1 1 1 1 1 1 3 4 4 4 4 4 4 3 3 3 4 4 4 4 4 4 5 5 6 7 8 9 9 10 10 10 10 10 11 11 11 11 11 11 12 12 12 13 14 14 15 16 16 16 16 16 17 17 17 17 17 17 17 17 17 18 18 18 18 18 19 19 19 19 19 19 19 19 19 19 20 20 20 20 21 21 21 21 22
2 2 1 1 1 1 1 2 3 4 4 4 4 4 4 4 3 3 3 3 4 4 4 4 5 6 6 7 8 9 9 9 10 10 11 11 11 11 12 12 12 12 13 13 14 14 15 16 16 16 16 16 16 16 16 17 17 17 17 17 17 17 17 18 18 18 19 19 19 19 19 19 19 19 19 20 20 20 21 21 21 21 22 22 22 23
2 2 2 1 1 1 2 2 2 2 3 3 3 3 4 4 3 3 2 3 3 3 3 3 4 4 6 6 6 8 8 9 10 10 11 11 12 12 12 12 13 13 14 14 15 15 16 16 17 16 16 16 15 15 16 16 16 16 16 16 17 17 17 18 18 18 19 19 19 19 19 19 20 20 20 21 21 21 21 22 22 22 22 23 23 23
1 1 2 1 1 1 2 2 1 1 0 1 2 3 4 4 3 3 3 3 3 3 3 3 4 4 4 4 5 6 8 9 9 10 11 11 12 12 13 13 14 14 15 15 16 16 17 17 17 16 16 15 15 15 15 16 16 16 16 16 17 17 17 18 18 18 19 19 19 19 19 20 20 20 21 21 21 22 22 22 22 22 23 23 23 23
2 2 2 1 1 1 2 2 2 2 1 2 2 3 3 3 3 3 3 3 4 4 3 3 3 4 3 4 4 6 7 8 9 10 11 12 12 13 13 14 15 15 16 16 17 17 17 17 16 16 15 15 15 15 15 16 16 16 16 16 17 17 17 18 18 18 19 19 19 19 20 20 20 20 21 21 21 22 22 22 22 23 23 23 23 24
2 2 1 1 1 1 2 2 2 3 3 3 3 3 3 3 3 3 4 4 4 3 3 3 3 4 4 4 5 6 7 8 9 10 11 12 13 14 14 15 15 16 16 17 17 17 17 16 16 16 15 15 15 15 16 16 16 16 16 16 17 17 17 18 18 18 19 19 19 20 20 20 20 20 20 21 21 21 22 22 22 23 23 23 23 23
2 2 2 1 1 1 2 2 2 3 3 3 3 3 3 3 3 3 4 3 3 3 3 3 3 4 4 5 5 6 6 8 9 10 11 12 13 14 14 15 15 16 16 16 17 17 16 16 16 15 15 15 16 16 16 16 16 16 16 16 16 17 17 18 18 18 19 19 19 19 20 20 20 20 20 20 21 21 21 22 22 22 23 23 23 23
2 2 2 2 2 2 2 2 2 2 2 3 3 3 4 3 3 4 4 3 3 3 3 3 3 4 4 4 5 5 5 6 7 8 9 10 11 12 12 13 14 15 15 15 16 16 16 16 16 16 16 16 16 16 16 16 16 16 15 16 16 16 17 17 18 18 19 19 19 19 19 20 20 20 20 20 20 21 21 22 22 22 22 23 23 23
3 3 2 2 2 2 2 2 2 1 2 2 2 3 3 4 4 4 4 4 4 3 3 3 3 3 3 3 3 4 4 5 5 6 7 7 7 8 10 11 12 13 14 14 15 15 16 16 16 16 16 17 17 16 16 16 15 15 15 15 15 16 16 17 18 18 18 19 19 19 19 19 19 20 20 20 20 20 21 21 22 22 22 22 23 23
2 2 2 2 1 1 2 2 2 1 1 1 0 1 1 2 3 3 3 4 3 3 3 3 3 3 3 3 3 3 4 5 6 7 7 7 8 9 9 10 10 11 13 14 15 16 16 16 17 17 17 17 16 16 16 15 15 14 14 14 15 15 16 17 17 18 18 18 18 19 19 19 19 19 20 20 20 20 21 21 21 22 22 22 22 23
2 2 2 2 1 1 1 2 2 1 1 0 0 0 0 1 1 2 3 3 2 2 2 2 2 2 3 3 3 3 4 4 5 6 7 8 9 10 10 10 10 11 13 14 15 16 16 17 17 17 17 16 16 15 15 14 14 14 14 14 14 15 16 17 17 17 18 18 18 18 19 19 19 19 20 20 20 20 21 21 21 21 21 22 22 22
1 1 1 1 1 1 1 2 2 1 1 1 2 2 2 1 0 1 3 3 2 2 2 2 2 2 3 3 3 3 3 4 4 4 4 5 6 7 7 8 9 10 11 12 13 14 15 16 16 16 15 15 15 14 14 13 13 13 13 14 15 15 16 17 17 17 18 18 18 18 19 19 19 20 20 20 20 21 21 21 21 21 21 21 22 22
1 1 1 1 1 1 1 2 2 2 2 2 2 2 2 1 1 1 2 3 2 2 2 3 2 3 3 3 3 3 3 3 3 3 3 4 4 4 5 5 5 6 6 7 8 9 11 13 13 13 13 13 13 13 13 13 13 13 14 14 15 16 16 17 17 17 18 18 18 19 19 19 19 20 20 20 20 21 21 21 21 21 21 21 21 22
1 1 1 1 1 2 1 2 2 2 2 2 1 0 1 1 0 1 2 2 2 2 2 3 3 3 3 3 2 2 2 3 3 3 3 3 3 3 4 5 5 5 5 5 6 7 8 9 9 10 11 11 12 12 12 12 13 13 14 15 15 16 16 17 17 18 18 18 18 19 19 19 20 20 20 20 20 21 21 21 21 21 21 21 21 22
1 1 2 2 2 2 2 2 2 2 1 1 0 0 0 1 1 2 2 2 2 2 2 3 4 3 2 1 1 1 1 2 3 3 4 3 3 3 4 5 5 5 5 5 6 6 7 7 7 7 8 9 10 10 11 11 13 14 14 15 16 16 17 17 18 18 18 19 19 19 19 20 20 20 20 20 20 20 20 21 21 21 21 21 21 22
1 1 2 2 2 2 2 1 1 1 1 1 1 0 1 1 1 1 2 2 2 2 2 3 3 3 2 2 2 1 1 2 2 3 4 4 3 3 4 5 6 6 5 6 6 6 6 6 7 7 7 9 10 11 12 12 14 15 15 16 17 17 17 18 18 18 19 19 19 19 20 20 20 20 20 20 20 20 21 21 21 21 21 21 21 22
1 1 2 2 2 1 1 1 1 0 0 0 0 1 1 2 1 1 2 2 2 2 2 2 3 3 2 1 2 2 1 2 3 3 4 4 4 4 4 5 6 6 6 6 6 6 6 6 6 6 7 9 10 12 13 14 15 16 17 17 17 17 18 18 18 18 19 19 19 19 20 20 20 20 20 20 20 21 21 21 21 21 21 21 21 22
1 1 1 2 1 1 1 1 1 0 0 1 1 1 1 2 2 2 2 2 2 2 2 2 2 2 3 1 1 2 2 2 3 4 4 5 4 4 4 5 6 6 6 6 6 6 6 6 6 7 7 10 12 13 14 15 16 17 17 18 18 18 18 18 18 19 19 19 19 19 20 20 20 20 20 20 20 21 21 21 21 21 21 22 22 22
1 1 1 1 1 1 1 1 1 1 1 1 1 1 2 2 2 2 2 2 3 3 3 3 3 2 2 3 2 0 2 1 3 4 4 5 5 5 4 5 6 6 7 7 7 6 6 6 7 9 10 12 13 14 15 16 17 17 18 18 18 18 18 18 18 19 19 19 19 19 20 20 20 20 20 20 21 21 21 21 21 22 22 22 22 22
1 1 1 1 1 1 1 2 2 2 2 1 2 2 2 2 2 2 3 2 2 2 3 3 3 3 3 3 3 2 2 3 3 4 4 5 5 5 4 5 6 7 7 6 6 6 6 6 7 8 10 12 13 14 15 16 17 17 18 18 18 18 18 18 19 19 19 19 19 20 20 20 20 20 20 21 21 21 21 21 22 22 22 22 23 23
1 2 2 1 1 1 1 1 1 1 1 1 2 2 2 2 2 2 2 2 2 3 3 3 3 3 3 3 3 3 3 4 4 4 3 4 5 4 4 4 5 6 7 6 6 6 6 6 7 7 8 11 13 14 15 16 17 17 18 18 18 18 18 18 19 19 19 19 19 20 20 20 20 20 21 21 21 21 21 22 22 22 23 23 23 23
1 1 1 1 1 1 0 0 0 1 1 2 2 2 2 2 2 3 2 2 3 3 3 3 3 4 4 4 4 4 4 4 3 3 3 4 5 5 3 4 5 6 7 6 6 6 6 7 7 7 9 12 14 15 16 16 17 17 18 18 18 18 18 18 19 19 19 19 20 20 20 20 21 21 21 21 21 22 22 22 22 23 23 23 24 24
2 1 0 1 1 1 1 1 1 1 1 2 2 2 2 2 3 3 3 3 3 3 4 4 4 4 5 5 5 5 4 4 4 4 4 5 5 5 3 4 4 5 6 6 6 6 7 7 7 8 10 13 15 15 16 16 17 17 17 17 18 18 18 18 19 19 19 20 20 20 20 21 21 21 21 22 22 22 22 23 23 23 23 24 24 24
2 1 1 1 0 1 1 1 1 1 2 2 2 2 2 2 3 3 3 3 3 4 3 4 5 5 5 5 5 5 4 4 3 3 3 5 5 5 4 4 5 6 7 6 6 6 7 7 7 8 9 12 14 15 16 16 16 16 16 17 17 18 18 19 19 19 20 20 20 21 21 21 21 22 22 22 22 23 23 23 23 23 24 24 24 24
2 1 1 1 1 1 1 2 2 2 3 2 2 1 1 2 3 3 3 3 3 3 3 4 5 5 4 4 4 4 3 3 3 3 3 4 5 5 4 4 5 6 7 6 6 7 7 8 8 8 8 10 12 14 15 15 15 15 16 16 17 17 18 19 19 20 20 20 21 21 21 22 22 22 23 23 23 23 23 23 23 24 24 24 24 25
2 1 1 1 1 2 3 3 4 4 5 4 2 2 2 2 3 3 3 3 3 3 3 4 5 5 4 3 3 3 3 2 2 3 3 4 4 5 4 4 5 6 6 6 6 6 7 8 8 8 8 9 10 12 13 14 14 15 15 16 17 18 18 19 20 20 21 21 21 22 22 22 23 23 23 23 23 23 23 23 23 24 24 24 24 24
3 2 2 2 2 3 4 5 5 6 7 6 5 3 2 2 2 3 3 2 2 2 3 4 5 5 4 4 4 4 3 2 2 3 3 3 4 5 4 4 4 5 7 6 6 7 8 8 9 9 8 8 9 10 12 12 13 14 15 16 17 18 19 19 20 20 21 21 22 22 22 22 23 23 23 23 23 23 23 23 24 24 24 23 22 20
3 3 3 3 3 3 4 5 6 7 7 8 8 6 4 3 3 3 3 2 2 2 3 4 5 5 4 4 4 4 4 4 3 3 3 3 4 4 4 4 4 5 6 6 6 7 8 9 9 9 8 8 7 8 9 11 12 13 15 16 17 18 19 19 20 20 20 21 21 22 22 22 23 23 23 23 23 23 23 23 24 23 22 19 16 13
4 4 4 4 4 4 5 5 6 6 6 7 8 7 5 4 3 3 3 2 2 3 4 5 5 5 4 5 5 5 5 4 3 2 1 3 3 4 4 4 4 4 5 5 6 6 7 7 7 7 7 7 7 7 7 9 10 12 13 15 16 17 18 18 19 19 20 20 21 21 22 22 22 23 23 23 23 23 23 23 23 21 17 14 12 11
5 5 6 6 5 5 5 5 5 5 5 6 6 6 6 4 4 4 3 3 3 4 4 5 5 5 4 5 5 4 4 3 0 1 0 2 3 3 4 4 4 4 4 5 5 5 5 5 5 5 6 6 7 7 7 8 9 9 10 12 14 15 16 17 18 18 19 19 20 21 21 22 22 22 22 22 22 23 23 23 21 18 12 11 11 11
5 5 5 5 5 4 4 3 3 4 4 5 5 5 5 4 4 4 3 3 3 4 4 5 5 5 4 4 4 3 3 1 1 2 1 2 3 3 4 4 5 4 3 3 4 5 5 4 4 4 5 6 7 7 8 8 8 8 8 9 10 11 13 15 16 16 17 18 19 20 20 21 21 21 22 22 22 22 22 22 20 16 11 11 11 11
5 4 4 4 4 3 3 3 3 3 3 3 3 4 4 4 4 4 3 3 4 4 4 5 5 5 5 4 4 4 3 2 1 0 2 2 3 3 3 4 4 4 3 3 4 5 5 5 4 4 5 6 7 8 8 8 8 8 8 9 9 9 11 13 14 14 14 16 17 18 19 20 20 21 21 21 21 21 21 22 20 16 11 11 11 11
4 4 4 4 3 3 3 3 3 3 3 3 3 3 3 4 4 4 4 4 4 4 5 5 5 5 5 5 5 5 4 4 3 3 4 3 3 3 3 4 4 5 4 4 5 5 5 6 6 6 6 6 7 7 8 8 8 8 9 9 8 9 10 11 11 11 12 13 14 15 16 18 18 19 20 20 20 20 20 20 19 17 13 11 11 11
4 4 4 4 4 3 3 4 4 3 3 3 3 3 4 4 4 5 5 5 4 5 5 5 5 5 5 5 5 5 5 5 5 5 5 4 3 3 4 4 5 5 5 5 5 5 6 7 7 6 6 6 6 7 8 8 8 8 8 8 8 8 9 9 9 9 10 10 11 11 12 13 15 16 17 17 18 18 19 19 19 19 18 14 12 11
4 4 4 4 4 3 3 4 4 4 3 3 4 4 4 4 4 5 5 5 5 5 5 5 5 5 5 5 5 5 5 4 5 5 5 4 4 4 4 4 5 5 5 5 5 5 5 7 8 8 7 7 7 7 7 7 8 8 8 8 8 8 8 8 9 9 10 10 10 10 10 10 11 12 13 14 15 17 18 19 20 20 20 19 17 14
4 4 4 3 3 3 3 4 4 4 4 4 4 4 4 5 5 5 5 5 5 5 5 5 5 5 5 5 6 6 6 5 5 5 5 5 4 4 4 4 5 5 5 6 6 6 6 7 8 9 9 9 8 7 6 6 7 7 8 8 8 8 9 9 9 9 10 10 10 10 9 10 10 10 11 14 16 18 19 20 20 21 21 21 20 19
3 4 4 3 3 3 4 4 4 4 4 4 4 4 5 5 5 5 5 5 5 5 5 6 6 6 6 6 6 6 6 6 6 7 7 6 5 5 5 5 5 6 6 6 6 7 7 7 8 8 8 8 7 7 6 7 7 7 8 8 8 8 9 9 9 9 10 10 10 10 10 10 10 10 11 14 16 17 18 19 19 19 20 21 21 21
3 4 4 3 3 3 3 4 4 3 4 4 4 4 4 5 5 5 4 5 5 5 5 5 6 7 8 9 9 9 9 9 9 9 9 8 7 6 6 6 6 6 6 7 7 7 7 8 8 8 8 8 8 8 8 8 8 8 8 8 8 8 9 9 9 9 9 10 11 11 11 11 11 10 11 11 11 11 12 12 13 15 17 17 19 20
3 4 4 3 3 3 4 4 4 4 4 4 4 4 4 4 5 5 5 4 5 5 6 6 6 6 7 9 10 11 11 11 10 10 10 9 8 7 7 7 7 7 7 7 7 7 7 8 8 8 8 8 9 9 9 8 9 9 9 9 9 9 8 8 9 9 9 10 11 11 11 10 10 10 10 10 10 10 10 10 10 11 12 12 13 16
4 4 4 4 4 4 4 4 3 3 3 3 3 4 4 4 4 4 5 4 4 5 6 7 7 7 7 8 9 10 10 9 9 9 9 9 8 8 7 7 7 7 7 7 7 7 8 8 9 9 9 9 9 9 9 9 9 9 10 9 8 7 8 8 8 9 9 10 10 10 10 10 10 10 10 10 10 10 10 9 9 10 10 10 10 11
4 4 4 4 4 4 3 3 3 3 3 3 3 3 3 3 4 4 4 4 4 5 5 6 6 6 7 7 8 9 9 9 9 9 8 8 8 8 8 7 7 7 7 7 7 7 8 9 9 10 9 10 10 11 11 10 11 11 12 11 10 9 9 10 10 9 9 9 9 10 10 10 11 11 11 11 10 10 10 10 10 11 10 10 9 10
5 4 4 4 3 3 3 3 3 3 3 3 3 4 4 3 3 4 4 4 4 4 4 4 5 5 6 6 7 7 8 8 8 8 8 9 9 9 9 8 7 6 6 7 7 8 8 9 9 9 9 10 10 10 11 11 11 11 11 11 11 11 11 10 9 8 9 9 9 10 11 11 11 11 11 11 11 11 11 11 12 13 12 11 10 10
5 5 4 4 3 3 3 3 3 3 3 3 4 4 4 3 3 4 4 4 5 4 4 4 4 5 6 6 6 6 6 7 8 9 9 9 9 10 9 9 8 7 7 7 8 8 8 9 9 9 9 9 10 11 12 11 11 11 10 11 11 10 8 7 7 8 9 9 10 10 10 10 10 11 11 11 11 11 11 12 13 14 13 11 11 11
5 5 4 4 3 3 3 3 3 3 3 4 4 4 4 3 4 4 4 4 5 5 4 4 5 5 6 6 6 6 6 6 7 8 8 8 9 9 9 10 10 9 8 8 8 8 8 9 9 9 9 9 10 11 11 11 11 11 10 10 11 10 9 9 9 10 10 10 10 10 10 10 11 11 11 11 11 11 10 11 11 11 12 11 11 11
5 4 4 4 3 3 4 4 4 4 4 4 4 4 4 4 4 4 4 4 5 5 4 4 4 5 5 6 6 5 5 5 5 5 6 7 9 9 9 9 9 9 9 8 8 8 8 8 9 9 8 9 10 11 11 11 11 11 11 11 11 11 11 11 11 10 10 10 10 10 11 11 11 11 11 11 11 10 10 11 11 11 11 11 11 12
5 5 5 4 4 4 5 4 4 4 4 4 4 4 4 4 4 4 4 5 5 5 5 4 4 4 5 5 5 5 5 4 4 4 4 5 6 7 7 7 7 7 7 7 8 8 9 9 9 9 9 9 10 11 11 11 11 11 11 11 11 11 11 11 11 10 11 11 11 11 11 11 11 11 11 11 11 11 11 11 11 12 12 12 12 12
5 6 6 5 5 5 5 4 4 4 4 4 4 4 4 4 4 4 4 5 5 5 5 5 5 5 6 6 6 5 5 5 5 5 4 5 5 6 6 6 7 7 7 7 8 9 10 10 10 10 9 10 10 11 11 10 10 11 11 11 10 10 11 10 10 10 10 11 11 11 11 11 11 11 12 12 12 11 11 11 11 11 12 12 12 12
6 6 6 5 5 5 5 4 4 4 4 4 4 4 4 4 4 4 4 4 5 5 5 5 5 6 6 6 6 6 6 6 6 6 5 5 5 5 5 5 5 6 7 8 9 10 11 11 11 11 11 10 11 11 11 10 10 10 10 10 10 10 11 11 10 10 10 11 10 10 10 10 10 11 12 12 12 12 11 11 11 11 11 11 12 13
6 6 6 5 5 5 5 4 4 4 4 4 4 4 4 4 5 5 4 4 4 4 4 5 6 6 6 6 6 6 6 6 6 6 6 5 5 5 4 5 5 6 7 8 9 9 10 10 11 12 11 11 11 11 11 11 10 10 10 10 10 10 11 11 10 10 10 10 10 10 9 9 10 10 11 12 13 14 13 12 12 11 11 11 12 13
6 6 5 5 5 5 5 5 4 4 5 5 4 4 4 4 4 4 4 4 4 5 5 5 6 6 6 6 6 6 6 6 6 6 6 5 5 4 5 5 6 6 7 7 7 7 7 7 8 10 11 12 12 11 11 11 11 10 10 10 10 10 10 10 10 10 10 10 10 10 10 10 10 10 10 12 14 15 15 13 12 12 11 11 12 13
6 5 5 5 5 5 5 5 5 5 5 4 4 4 4 4 4 4 4 4 4 5 5 5 6 6 6 6 6 6 6 6 6 6 6 5 4 5 5 6 6 6 7 6 6 6 5 5 6 7 8 10 11 11 10 10 10 10 10 10 9 9 9 10 10 10 11 11 10 10 10 10 10 10 10 11 12 14 14 14 13 12 11 11 12 13
Wind_Direction
88 79 80 95 128 156 175 190 185 179 178 178 173 165 155 152 152 157 164 173 181 189 197 203 207 209 211 216 222 228 234 240 246 250 253 256 258 260 262 264 266 267 269 271 272 273 274 274 274 274 274 275 275 276 277 278 278 279 279 280 281 282 282 282 282 282 282 283 283 283 284 284 285 285 286 285 284 283 282 281 280 279 278 277 276 275
118 115 114 142 164 163 142 198 203 197 186 184 181 175 166 160 158 160 174 187 194 200 206 208 213 217 220 221 226 231 237 244 249 253 256 259 262 264 266 268 270 271 272 273 274 274 273 273 272 272 272 272 273 275 276 277 278 279 280 281 282 283 283 284 284 284 284 284 284 285 285 286 286 285 285 284 283 282 281 279 278 277 276 275 275 274
116 117 114 149 178 168 130 171 205 218 200 183 176 173 171 167 164 165 178 188 196 203 211 210 217 226 231 233 235 237 241 248 253 257 261 264 267 269 272 273 275 275 275 275 274 273 272 271 270 270 270 271 272 273 274 276 277 278 280 281 282 283 283 284 284 284 284 284 284 284 284 283 283 283 282 281 280 279 278 278 277 276 275 274 274 273
113 112 111 139 147 112 96 132 159 194 248 133 142 157 172 173 171 170 177 186 193 200 208 212 221 231 239 242 242 242 245 251 257 262 266 269 272 274 276 277 277 277 277 275 274 272 271 270 269 269 269 270 271 272 274 275 276 278 279 280 281 282 282 282 282 282 282 282 282 281 281 281 280 279 279 278 278 277 277 276 276 275 274 274 273 273
127 121 127 145 137 115 104 128 144 147 135 127 141 159 180 181 176 171 174 187 197 203 206 213 223 232 242 246 248 249 251 256 262 267 271 274 276 277 278 278 277 276 275 274 272 271 269 269 269 269 270 271 271 272 273 274 276 277 278 279 280 281 281 282 282 281 281 281 280 280 279 279 278 278 278 277 277 276 276 276 275 275 275 274 274 274
126 121 131 138 130 122 125 142 152 157 159 159 164 172 184 184 182 179 180 190 200 208 210 218 227 235 241 244 249 253 258 262 267 271 274 275 276 277 277 276 275 274 273 272 270 269 269 269 269 270 270 271 272 273 273 274 275 277 278 280 281 281 282 281 281 281 280 280 279 279 278 278 278 277 277 277 277 276 276 276 275 275 275 275 274 274
126 128 140 134 125 122 128 148 163 170 172 166 167 172 181 184 188 190 191 194 201 210 218 225 230 235 239 241 244 250 258 264 268 271 272 273 273 274 274 273 272 271 270 270 269 268 268 268 269 270 271 272 273 274 274 275 276 277 279 280 281 282 282 281 281 280 280 279 279 278 278 278 277 277 277 277 276 276 276 275 275 275 275 275 275 274
138 147 162 155 150 145 140 152 169 183 191 179 172 172 179 185 189 192 192 196 202 213 226 232 233 235 239 242 246 252 260 267 270 272 272 272 271 271 271 270 270 270 269 268 268 268 268 269 270 271 271 273 273 274 275 276 277 278 279 281 281 282 282 281 280 280 279 279 278 278 278 277 277 277 276 276 276 275 275 275 275 275 274 274 274 274
144 153 165 165 163 158 151 154 164 186 225 209 188 179 181 188 188 190 191 196 200 208 226 239 244 247 247 252 257 261 266 269 273 275 277 278 277 275 274 273 272 270 270 270 270 270 270 270 271 271 272 273 274 274 275 276 277 278 279 280 281 281 281 280 280 279 279 278 278 278 277 277 276 276 276 275 275 275 274 274 274 274 274 275 275 275
140 145 149 159 167 165 149 143 145 158 237 255 231 181 201 204 202 202 208 203 197 195 214 236 251 260 266 263 262 263 264 262 264 267 271 273 276 278 277 275 274 272 271 271 271 271 271 271 271 271 272 272 273 274 275 276 277 278 278 279 279 279 279 279 279 279 278 278 277 277 277 276 276 275 275 274 274 274 274 274 274 274 275 275 275 276
136 137 139 142 145 134 109 112 117 129 186 198 150 106 338 265 249 245 244 234 217 204 217 229 245 262 274 274 271 268 268 267 264 262 263 265 269 270 270 269 269 269 269 269 270 270 269 269 270 270 270 271 272 273 273 274 276 277 278 278 278 278 278 278 278 278 277 277 277 276 276 275 275 274 274 274 274 273 273 274 274 274 275 275 276 276
133 133 132 134 135 129 108 106 113 133 188 198 198 192 180 157 270 275 268 268 267 265 268 265 260 259 264 272 276 276 273 274 274 271 267 266 265 265 265 264 263 263 264 265 266 266 267 267 267 267 268 268 269 270 271 272 274 276 277 277 277 277 277 277 277 277 277 277 276 276 276 275 275 274 274 274 274 274 274 274 274 275 275 275 275 275
121 121 128 136 146 149 145 144 152 171 197 213 218 211 175 128 121 277 273 272 274 279 287 285 276 263 250 251 258 268 277 280 282 282 277 271 267 266 268 266 263 262 261 263 264 263 264 265 265 265 265 265 266 267 269 271 273 274 275 276 276 276 276 277 277 277 277 277 277 277 276 276 275 275 274 274 274 275 275 275 275 275 274 274 274 274
132 140 154 162 165 166 170 178 185 191 199 213 230 254 71 97 151 255 267 264 263 266 276 276 275 268 247 235 238 252 273 281 284 281 276 270 269 272 277 276 273 269 267 267 267 266 266 267 266 265 263 263 264 266 268 270 272 274 275 276 276 277 278 278 278 279 279 279 278 277 277 276 276 275 275 275 275 275 275 275 275 274 274 274 274 273
155 169 183 185 182 178 180 194 204 206 194 175 130 81 90 181 223 252 269 274 275 274 271 274 275 272 249 201 179 207 245 268 277 282 283 281 282 284 285 283 280 276 272 272 272 273 273 271 269 268 266 264 265 267 270 273 275 277 277 278 279 279 280 281 281 281 281 280 279 278 277 276 276 275 275 275 275 275 275 275 275 275 274 274 274 274
174 193 204 201 193 184 175 194 211 215 166 106 85 293 253 238 244 259 277 286 288 286 278 283 286 282 245 141 128 151 226 260 276 288 294 292 292 291 289 286 283 280 276 276 277 278 277 272 269 268 267 267 268 271 274 275 278 279 280 281 282 283 284 284 283 282 282 280 279 278 277 276 276 275 275 275 275 276 276 276 275 275 275 275 275 275
189 207 217 214 203 182 148 171 218 248 85 90 90 273 276 277 277 277 279 285 287 285 282 290 294 293 281 154 143 156 209 266 286 296 298 295 294 293 289 284 283 282 281 278 277 277 274 270 267 265 264 267 270 274 277 278 280 282 283 284 285 285 285 285 284 283 281 280 279 277 277 276 276 276 276 276 276 276 277 277 277 276 276 276 276 275
194 209 220 221 206 165 129 149 167 177 167 190 208 230 253 265 272 275 275 278 280 282 283 281 280 283 291 292 172 153 160 271 298 304 301 295 293 292 288 280 278 277 278 275 273 271 270 268 267 267 268 273 276 277 279 281 282 283 284 285 286 286 286 285 284 283 281 280 279 278 277 277 277 277 277 277 277 278 278 277 277 277 277 277 277 277
193 209 226 225 196 140 134 162 177 184 199 207 218 229 235 235 240 249 258 266 272 276 281 279 276 274 278 285 298 68 160 280 302 306 301 295 293 291 286 277 274 273 272 272 272 272 272 272 271 271 272 274 276 277 279 280 282 283 285 286 287 287 286 285 284 283 282 281 280 279 279 278 278 279 279 279 279 278 278 278 278 278 278 278 278 278
195 203 218 215 187 171 175 187 189 190 197 217 239 252 256 250 246 246 249 257 263 269 274 275 276 277 278 281 290 300 301 306 306 302 297 292 289 284 277 271 270 272 273 273 275 277 278 277 275 273 272 273 274 276 277 279 281 283 285 286 287 287 287 286 285 284 282 281 281 280 280 280 280 279 279 279 279 279 279 279 279 279 279 279 279 279
215 207 202 196 201 202 191 184 183 188 202 241 260 268 272 271 267 262 262 265 267 268 268 269 271 274 280 281 286 294 307 308 304 297 293 288 284 280 272 269 272 276 278 278 279 280 281 281 280 278 276 276 277 277 278 280 282 284 286 287 287 288 287 286 285 284 283 282 281 281 281 280 280 280 280 280 280 280 280 280 280 281 281 281 281 281
247 224 183 197 219 245 302 123 162 196 231 255 264 271 277 279 279 279 278 276 273 271 268 269 274 280 286 287 289 292 296 289 285 284 288 285 283 281 279 279 280 281 281 283 285 286 286 285 284 282 281 281 280 280 280 281 282 284 285 286 287 287 287 286 285 284 283 282 282 281 281 281 280 280 280 281 281 281 282 282 282 282 282 282 282 282
277 281 216 214 246 295 327 321 296 263 249 255 260 268 282 291 295 296 294 289 285 282 282 284 286 287 286 283 280 277 269 260 261 268 279 281 283 286 290 291 288 285 283 286 290 292 291 288 286 285 284 282 282 281 281 280 281 282 283 285 286 286 286 285 284 284 283 282 282 281 281 281 281 281 282 282 282 283 283 283 283 283 283 283 282 282
275 283 273 247 258 285 296 292 285 276 267 268 275 285 298 297 295 294 295 293 291 291 292 290 286 281 274 269 266 263 254 248 251 262 274 279 284 289 297 296 291 287 285 288 292 294 293 288 286 284 284 283 282 281 281 281 281 281 282 283 284 284 284 284 283 283 282 282 282 282 282 282 283 283 283 283 283 283 283 283 283 283 283 283 283 283
263 266 257 245 246 259 272 279 283 282 278 275 273 275 278 269 266 266 268 270 272 273 273 273 272 272 271 269 270 269 262 249 248 258 272 279 284 288 294 296 292 289 287 290 292 292 291 288 286 285 285 284 283 283 282 282 282 282 282 282 283 283 283 282 282 282 282 282 283 283 283 284 284 284 284 284 284 284 283 283 283 283 284 284 283 283
251 258 259 241 237 244 256 264 269 273 276 274 259 230 229 241 245 245 243 241 244 250 261 268 272 276 282 284 283 281 276 248 236 245 263 277 285 289 293 294 290 288 289 291 291 292 291 290 289 289 288 287 285 284 284 283 283 282 282 282 282 281 281 281 281 282 282 282 283 283 284 284 284 284 284 284 283 283 283 284 284 284 284 285 284 283
226 228 226 225 231 242 254 264 271 277 282 287 285 273 252 254 256 254 249 243 245 258 272 279 283 286 288 286 283 284 287 273 250 244 252 270 280 285 290 292 291 289 291 291 293 294 294 292 291 290 288 286 285 284 284 284 283 283 282 282 281 281 280 280 281 281 281 282 282 283 283 283 283 283 283 283 283 283 283 284 284 285 285 285 285 283
220 221 222 225 234 249 263 274 280 284 287 290 290 288 285 282 276 273 270 281 291 288 281 282 285 288 290 288 287 289 291 283 270 259 253 266 274 280 288 292 292 292 295 296 297 296 292 287 285 284 282 282 283 284 285 287 286 285 284 283 282 281 281 280 280 280 281 281 281 282 282 282 282 282 282 283 283 283 283 284 285 285 285 285 283 281
216 219 222 226 234 246 260 269 275 278 280 282 283 283 283 279 276 276 282 296 296 286 278 279 281 285 288 290 290 288 282 274 270 269 262 268 272 277 288 292 295 300 307 306 302 295 284 279 277 279 281 285 288 292 294 295 293 291 289 286 285 283 282 281 281 281 281 281 281 281 282 282 282 282 282 282 282 283 283 284 285 285 285 283 281 279
219 220 224 227 231 238 249 259 265 267 268 270 272 274 273 270 269 271 277 280 279 276 277 279 279 281 285 289 289 284 274 268 258 94 254 269 274 282 294 299 305 312 319 312 305 296 286 280 279 283 289 296 300 302 303 301 298 295 293 289 286 284 283 282 282 282 282 282 282 282 282 282 282 282 282 282 282 282 283 284 284 285 283 281 279 278
233 234 237 237 236 237 241 248 253 256 255 257 260 262 264 264 264 266 269 269 268 269 272 274 275 275 276 280 281 280 278 296 105 115 264 273 280 289 302 303 304 306 309 304 301 299 298 294 291 294 302 305 305 302 299 296 294 292 290 289 287 285 284 284 284 283 283 283 282 282 282 283 282 282 282 282 282 283 283 283 283 283 282 280 278 277
246 246 249 249 247 242 236 236 239 241 242 245 248 251 255 257 258 259 259 258 259 261 264 267 268 268 266 265 266 269 278 296 293 241 289 285 286 289 297 294 293 292 292 282 282 287 294 297 300 303 305 300 296 293 291 290 289 289 288 288 286 286 286 287 286 285 285 284 284 284 284 284 284 284 284 283 283 283 282 282 282 281 279 278 277 277
253 251 250 252 249 243 235 232 230 231 232 237 242 246 249 250 250 251 252 252 254 256 260 263 265 265 263 261 260 261 268 279 289 296 297 288 284 285 288 287 288 289 288 278 272 271 275 284 292 296 294 290 288 288 289 288 287 286 286 286 287 288 290 290 289 288 288 287 287 287 287 286 286 285 284 284 283 282 282 281 280 279 276 276 276 277
250 249 249 251 251 249 244 239 235 233 234 238 243 247 249 248 248 248 249 250 250 251 253 258 260 262 263 262 261 261 264 269 277 284 288 282 281 283 286 284 285 286 287 280 275 271 270 276 283 290 292 289 287 286 287 287 286 285 283 284 286 288 291 292 291 290 290 290 290 290 290 288 287 286 285 284 283 282 282 281 280 278 277 276 276 277
244 244 246 250 252 253 252 249 245 243 242 245 248 250 251 252 252 252 251 251 250 249 249 252 254 257 259 261 263 265 266 270 277 283 285 280 281 283 283 279 280 282 283 281 279 277 277 279 282 287 292 293 290 286 283 284 284 284 283 284 285 287 290 291 292 292 292 291 291 290 289 288 287 286 285 284 284 284 283 282 281 279 277 276 275 275
243 246 250 251 251 251 251 250 250 250 251 253 254 253 253 253 254 254 254 253 253 252 250 250 251 252 253 257 261 265 269 275 282 285 283 279 278 277 277 274 275 277 279 279 279 279 281 283 284 286 288 289 290 288 285 285 287 288 288 288 288 288 289 290 291 292 291 290 289 288 288 288 288 287 286 286 286 285 285 283 281 280 278 276 274 272
247 253 254 249 244 243 246 247 248 250 253 255 255 253 252 254 256 258 258 255 254 253 252 251 250 249 249 252 257 261 268 272 275 275 275 273 271 269 269 272 271 271 271 275 278 280 282 284 285 285 283 282 285 290 295 297 296 293 290 290 289 289 288 288 287 286 286 286 286 288 289 290 290 290 289 288 287 286 285 283 281 280 278 276 274 272
251 257 255 242 234 234 242 246 246 246 249 252 255 256 258 261 264 265 264 258 254 252 253 254 255 255 255 257 260 263 268 271 273 274 273 272 270 267 266 269 268 266 263 268 273 277 280 282 285 286 284 282 283 287 294 297 297 294 291 290 289 287 287 286 284 283 284 286 288 290 291 291 291 290 289 288 287 286 284 283 281 280 279 277 275 273
249 253 254 240 229 226 232 239 242 245 249 254 260 265 270 272 272 270 266 261 256 253 254 258 261 263 262 262 263 264 266 268 269 270 270 268 265 263 263 265 266 265 263 263 265 269 272 274 277 281 285 287 288 288 289 291 293 294 295 293 289 285 283 285 286 288 289 291 291 291 290 289 287 286 286 286 285 284 284 283 282 281 280 280 278 275
257 257 255 245 235 230 233 240 248 256 263 269 274 276 276 276 274 271 266 258 251 250 252 256 260 263 263 262 262 263 264 264 264 263 263 259 257 256 257 260 263 265 264 262 261 261 264 267 271 274 278 283 287 290 291 290 291 292 296 295 292 288 288 291 293 293 292 290 288 288 288 288 287 286 285 284 283 283 284 284 284 283 283 283 283 282
264 258 253 247 242 239 242 250 260 269 276 279 277 273 269 270 273 275 274 265 256 252 254 255 257 260 261 261 262 263 264 263 262 260 258 254 252 251 254 256 259 262 264 263 261 259 259 264 269 273 276 280 283 286 286 286 288 291 293 292 292 293 296 294 293 291 288 286 286 287 289 289 288 287 286 286 285 284 284 285 286 286 285 282 280 280
256 253 251 249 246 245 247 256 262 266 266 266 266 266 267 272 277 282 284 280 275 269 264 263 265 268 269 268 267 266 265 263 259 255 251 248 246 247 250 253 255 258 261 263 262 261 259 262 267 271 275 279 282 284 284 285 286 288 288 289 292 295 295 290 288 287 288 289 290 291 291 290 289 289 288 287 286 284 283 282 282 282 281 278 275 273
251 251 252 252 253 256 260 262 261 260 259 261 265 269 272 274 278 281 283 282 280 279 276 274 275 277 279 278 276 272 267 261 256 252 248 244 242 244 248 252 254 256 258 261 263 264 263 263 265 269 273 276 279 280 283 287 288 288 287 289 292 295 294 291 292 292 291 291 291 290 289 288 287 287 286 285 284 283 282 280 279 277 277 276 275 273
253 254 255 255 255 253 251 252 255 258 263 269 273 275 276 269 265 267 272 275 277 278 278 278 278 277 275 275 276 276 273 264 257 252 251 249 245 245 249 253 255 256 256 259 264 269 272 269 268 269 272 275 277 279 282 285 288 288 287 287 286 285 283 290 295 296 293 290 287 286 285 286 286 285 284 283 283 283 282 281 280 279 277 277 276 274
259 260 259 255 250 246 245 250 255 260 263 269 274 275 273 263 257 258 265 272 275 276 275 277 278 277 274 276 277 278 278 276 269 264 259 256 252 250 250 252 255 256 257 258 262 268 273 275 276 277 278 278 278 278 281 283 285 286 285 284 283 281 279 284 288 291 290 288 287 285 285 286 287 287 286 284 283 282 282 282 282 281 280 277 274 272
256 256 256 254 251 251 253 259 263 265 266 267 267 266 262 256 254 257 264 270 274 275 274 274 273 273 274 278 280 282 283 282 279 276 273 269 263 258 254 253 255 257 260 262 264 266 269 274 279 283 285 281 278 275 274 278 281 284 284 285 285 284 284 284 284 285 285 286 286 286 287 287 287 286 286 286 286 285 283 282 281 280 279 277 274 272
248 251 254 255 255 255 256 258 260 261 263 262 261 259 256 252 251 255 261 266 269 272 273 270 269 269 273 278 281 284 285 285 285 285 284 282 279 274 268 265 264 265 268 270 270 270 269 270 273 276 280 280 278 276 274 275 277 280 283 286 287 286 285 284 284 284 284 283 283 285 288 290 289 289 288 289 288 286 284 282 279 278 277 275 273 271
246 250 254 255 255 254 253 250 251 254 258 260 259 258 254 250 251 255 261 264 267 269 270 269 269 271 273 276 278 279 282 284 286 288 288 285 282 279 277 279 279 278 277 274 272 270 268 266 264 264 265 269 273 276 278 277 277 278 281 284 285 285 284 283 283 282 281 281 283 287 292 294 293 293 294 293 290 287 284 282 279 276 273 272 270 269
245 249 252 253 253 251 248 247 247 250 254 257 259 259 255 250 250 253 260 264 267 269 270 272 273 273 274 275 277 279 280 282 283 285 285 284 285 286 288 291 291 288 283 278 274 271 269 264 259 255 253 257 263 271 276 278 278 279 280 281 281 282 282 282 284 285 287 288 290 292 295 294 293 294 295 292 288 286 284 282 278 275 271 268 267 266
242 245 247 248 249 249 249 247 247 248 251 255 257 259 257 251 247 247 252 259 262 264 266 269 271 273 275 277 280 281 282 282 283 283 283 284 289 294 299 299 298 294 290 286 282 280 278 273 264 256 250 250 255 264 273 278 280 281 280 279 280 282 284 286 289 291 293 293 294 295 296 294 291 289 287 285 284 284 284 282 279 275 272 270 268 267
238 238 238 241 243 246 246 246 246 247 250 254 258 261 263 259 253 249 249 251 255 258 260 264 268 272 275 278 279 280 280 281 281 282 282 286 293 300 301 300 298 296 295 293 293 292 290 289 283 273 260 254 254 259 270 278 283 285 284 282 283 285 286 288 290 292 294 294 295 295 295 291 287 283 279 279 281 283 284 283 281 279 276 275 274 273